Regional Weather Roundup
Issued by NWS Newport/Morehead, NC

Home | Current Version | Previous Version | Text Only | Print | Product List | Glossary On
Versions: 1 2 3 4 5 6 7 8 9 10 11 12 13 14 15 16 17 18 19 20 21 22 23 24 25 26 27 28 29 30 31 32 33 34 35 36 37 38 39 40 41 42 43 44 45 46 47 48 49 50
000
ASUS42 KMHX 030524
RWRMHX
WEATHER ROUNDUP FOR EASTERN NORTH CAROLINA
NATIONAL WEATHER SERVICE NEWPORT/MOREHEAD CITY NC
1200 AM EST SAT DEC 03 2016

NOTE: "FAIR" INDICATES FEW OR NO CLOUDS BELOW 12,000 FEET
WITH NO SIGNIFICANT WEATHER AND/OR OBSTRUCTIONS TO VISIBILITY

NCZ015>017-031-032-045>047-102-103-030600-
NORTH COAST

CITY           SKY/WX    TMP DP  RH WIND       PRES   REMARKS
EDENTON        PTCLDY    47  35  61 NW8       30.15S
ELIZABETH CITY PTCLDY    42  33  70 W12       30.13S
KITTY HAWK     PTCLDY    49  38  66 NW8G17    30.10S
MANTEO         PTCLDY    49  36  59 NW13G20   30.12S

$$

NCZ045>047-081-094-103-104-030600-
CENTRAL COAST

CITY           SKY/WX    TMP DP  RH WIND       PRES   REMARKS
FRISCO         CLEAR     52  37  56 NW8       30.12S

$$

NCZ095-097-098-100-101-030600-
SOUTHERN COAST

CITY           SKY/WX    TMP DP  RH WIND       PRES   REMARKS
BEAUFORT       CLEAR     48  36  63 W13       30.15F
CEDAR ISLAND   NOT AVBL
JACKSONVILLE   CLEAR     41  37  86 W6        30.15F
PINEY ISLAND   CLEAR    N/A N/A N/A W7        30.14F
WILMINGTON     CLEAR     44  37  76 W5        30.17F


$$

NCZ011>013-027>030-043-044-078>080-089-090>093-098-030600-
COASTAL PLAIN

CITY           SKY/WX    TMP DP  RH WIND       PRES   REMARKS
AHOSKIE        PTCLDY    41  31  68 CALM      30.17S
CLINTON        PTCLDY    40  39  94 CALM      30.18S
ELIZABETHTOWN  PTCLDY    43  37  78 CALM      30.17S
GOLDSBORO      PTCLDY    44  35  69 CALM      30.16R
GREENVILLE     PTCLDY    43  34  70 CALM      30.18S
HAVELOCK       CLEAR     44  34  67 W8        30.16F
KENANSVILLE    CLOUDY    37  34  87 CALM      30.17S
KINSTON          N/A     42  34  75 NW5       30.18S
NEW BERN       CLEAR     43  34  70 W5        30.16F
RICHLANDS      CLOUDY    37  35  92 CALM      30.17F
ROCKY MOUNT    PTCLDY    39  34  82 W3        30.18R
WASHINGTON     PTCLDY    42  33  69 NW7       30.17S
WHITEVILLE     PTCLDY    41  37  86 CALM      30.16F

$$

AMZ130-135-150-152-154-156-158-170-250-252-270-ANZ085-086-088-633-658-670-030600-
MARINE OBSERVATIONS

STATION/POSITION TIME  TEMP    WIND        PRES    WAVE   SWELL
                       AIR SEA DIR/SP/G            HT/PER HT/PER
                 (UTC) (F)     (DEG/KT/KT) (MB)    (FT/S) (FT/S)
CHESAPEAKE LIGHT NOT AVBL
64 E VA BEACH    0450   51 60  350/ 19/ 25 1018.1    4/ 5   2/ 9
DUCK             0500   48 57  310/ 15/ 19 1018.8
2 E DUCK         NOT AVBL
OREGON INLET     0500   49 57  280/ 11/ 15 1019.5
13E OREGON INLT  0500      60                N/A     3/ 5   2/ 5
HATTERAS CG      0500   54 61  300/ 13/ 17 1019.7
DIAMOND BUOY     0450   58 75  310/ 21/ 29 1019.6    4/ 4   2/ 8
CAPE LOOKOUT     0500   55     290/ 16/ 19 1020.3
BEAUFORT LAB     0500   50 58  300/ 10/ 14 1019.7
30 SE NEW RVR IN 0508   59 71  320/ 17/ 23 1020.9
30 SE NEW RVR IN NOT AVBL
27 SE WRIGHTSVLE 0508   58 69  280/ 16/ 23 1020.7
5 SE WRIGHTSVLE  0508   51 63  290/ 14/ 19 1020.7
225 S CAPE HAT   0450   67 74  340/ 16/ 17 1019.0    4/ 6   2/ 9
41 SE CHARLESTON 0450   61 74  330/ 12/ 14 1021.7    3/ 4   2/ 8

$$



USA.gov is the U.S. government's official web portal to all federal, state and local government web resources and services.